RH
18 23 25 28 28 24 22 21 20 19 18 16 16 16 15 13 13 16 18 15 19 16 15 11 9 7 6 10 11 10 9 8 12 19 25 30 25 22 22 20 33 29 66 31
11 13 16 17 16 15 12 13 18 18 19 17 16 16 19 20 18 15 14 14 14 15 18 20 23 26 30 32 26 24 22 20 29 40 40 40 38 31 33 31 28 42 54 26
7 8 8 8 8 8 8 8 10 13 15 13 14 16 18 22 21 20 20 17 18 16 14 16 17 19 22 22 23 25 26 28 26 24 30 41 40 34 31 35 36 32 22 10
6 7 7 7 8 8 8 8 10 10 12 12 13 15 15 24 24 24 24 21 24 25 24 20 17 17 17 20 24 29 32 30 30 21 23 29 28 23 22 35 23 33 9 19
7 7 8 8 9 8 9 11 13 11 10 12 15 18 20 22 24 27 26 25 28 30 30 26 25 24 24 24 24 26 34 34 32 22 22 30 34 22 17 21 25 32 21 23
11 12 13 14 15 15 14 16 18 18 19 19 19 21 23 25 29 27 29 30 33 34 32 34 32 29 26 24 26 29 36 36 44 48 35 48 55 20 19 25 26 25 31 22
26 24 22 21 20 20 22 23 26 27 27 26 29 27 28 33 34 36 35 34 34 34 40 43 40 36 30 27 25 25 35 44 57 60 58 72 29 29 30 32 28 33 36 43
39 38 37 35 33 32 32 32 32 34 33 31 29 33 35 34 37 39 40 40 40 44 47 45 40 36 35 31 30 32 36 57 71 61 71 48 32 27 31 31 34 32 38 48
44 44 44 44 45 45 43 44 45 44 46 42 41 40 40 42 40 41 44 46 50 50 53 50 48 44 38 36 44 37 54 68 80 78 79 84 45 42 39 37 42 49 53 56
55 56 58 57 54 52 50 51 52 53 54 51 51 49 48 49 51 53 58 62 61 62 62 62 62 62 50 46 42 43 49 66 76 90 90 67 52 50 51 54 61 66 60 60
73 70 66 63 60 60 58 59 60 60 61 59 68 67 68 70 71 74 80 84 84 81 78 70 67 64 61 60 58 55 52 54 57 74 98 81 60 57 65 82 75 76 75 72
96 93 89 86 81 78 79 80 80 81 82 79 80 80 82 80 83 87 93 94 97 90 88 83 82 80 80 78 76 69 70 65 64 77 73 72 86 90 95 93 94 89 85 84
95 94 93 90 86 84 82 79 79 81 78 73 69 68 68 78 85 96 97 93 98 98 96 96 97 97 96 94 87 85 83 83 93 97 94 96 96 97 97 94 92 90 92 99
92 91 86 82 79 76 75 72 64 58 59 68 65 66 67 68 73 77 81 94 94 95 98 98 97 96 96 89 83 86 88 96 90 88 86 92 93 88 91 94 100 100 94 83
60 68 71 58 46 34 24 20 22 31 41 46 47 50 58 70 70 75 76 75 65 69 92 100 100 100 100 96 97 96 94 92 92 100 98 100 94 94 97 95 85 70 61 54
71 59 30 24 21 18 28 26 29 18 15 18 21 31 34 35 34 39 30 30 39 79 100 100 98 99 99 96 98 96 94 98 97 96 96 84 80 86 87 68 62 63 59 57
23 22 20 15 13 12 12 14 21 20 22 40 34 23 32 30 26 27 26 32 44 63 72 84 89 95 95 93 88 96 98 97 95 88 87 79 66 56 42 36 33 31 29 29
41 41 32 24 18 15 14 13 12 13 16 21 24 29 38 46 47 52 58 73 89 97 99 99 95 93 94 96 91 86 94 96 92 88 70 60 48 39 36 32 30 31 32 33
36 39 38 31 32 25 28 28 35 46 58 50 55 55 70 94 98 98 99 97 87 76 70 73 83 80 93 88 79 80 86 95 92 70 47 44 43 45 54 57 56 55 43 37
21 26 34 39 50 54 43 32 27 33 56 97 72 94 100 88 86 82 79 78 74 85 82 85 94 100 100 99 97 96 95 83 60 52 53 62 62 67 66 62 58 44 35 32
24 27 33 39 47 50 51 36 62 98 98 100 100 100 100 95 99 99 98 96 93 81 76 76 91 81 93 97 100 98 82 75 68 73 76 76 58 50 46 38 34 32 32 33
71 68 63 55 51 60 46 83 98 100 98 97 97 96 99 98 94 89 92 78 77 73 91 90 81 100 98 100 96 94 96 97 95 83 64 44 34 30 29 30 30 31 33 35
83 85 80 68 61 80 88 99 98 98 97 94 94 91 87 84 81 63 64 56 57 67 80 75 90 100 100 100 99 97 93 77 51 40 33 29 26 25 26 27 31 38 40 39
87 91 87 82 75 83 98 100 97 92 81 65 54 49 48 47 48 50 52 65 66 70 67 97 100 99 96 93 90 64 43 38 36 35 34 32 33 41 46 53 59 66 68 70
93 87 84 78 81 96 95 81 66 58 49 45 41 39 40 43 47 58 61 67 77 90 97 96 85 74 65 54 48 41 38 36 34 41 49 48 48 48 49 55 60 68 72 71
88 80 76 79 80 97 95 82 71 59 50 48 57 56 52 55 62 62 60 64 48 65 76 73 69 60 55 53 45 42 45 57 56 54 53 52 58 65 67 66 70 77 84 81
84 87 88 85 81 78 78 73 67 59 60 76 71 66 68 70 77 61 57 62 74 81 70 59 65 67 59 54 54 61 60 55 55 58 62 67 74 74 73 73 70 76 80 90
Wind_Speed
1 2 3 5 7 8 7 8 9 12 11 13 15 15 14 11 9 7 6 5 5 4 2 2 2 3 2 2 3 4 7 7 8 9 13 14 14 16 16 9 7 10 3 21
5 5 3 2 3 3 3 4 4 5 5 6 10 10 10 9 9 7 6 4 4 3 3 2 2 3 4 7 9 5 6 7 4 3 8 15 19 19 21 22 22 21 5 16
11 10 9 8 7 8 7 7 5 5 3 7 6 6 6 6 7 5 7 6 6 7 6 5 5 8 7 9 9 11 13 18 17 13 10 8 10 12 15 23 19 21 36 46
16 15 14 14 13 12 11 11 9 9 10 10 8 7 6 6 6 4 5 2 6 9 9 13 9 13 14 15 15 17 16 22 21 25 25 28 30 28 29 31 36 39 47 45
21 21 20 19 17 16 15 14 13 14 14 13 12 11 11 10 8 9 9 8 10 14 15 16 19 21 21 19 19 18 20 23 25 30 27 26 28 31 36 38 39 46 47 47
26 25 24 23 20 19 18 17 17 16 17 16 15 16 14 13 14 15 13 13 19 20 20 21 22 24 26 27 28 25 25 26 22 23 25 19 17 32 23 30 27 27 34 30
28 27 26 26 24 22 21 20 19 19 19 18 18 17 18 18 19 21 22 24 25 25 26 29 29 27 28 30 32 31 31 28 22 17 16 5 16 16 14 14 17 20 21 17
29 28 27 26 24 23 23 22 22 22 23 23 22 22 22 23 25 26 27 28 29 29 30 28 26 22 26 28 29 29 30 29 16 8 13 23 29 21 18 13 12 17 17 13
32 31 29 28 27 26 25 26 26 28 28 30 28 28 29 31 32 34 35 34 34 32 31 27 15 11 18 11 7 12 23 28 26 11 8 5 5 6 15 22 17 14 14 18
39 39 38 37 37 36 36 36 38 38 40 41 39 39 38 40 40 39 38 36 35 34 32 29 24 22 20 14 18 18 21 27 34 31 17 16 15 17 17 14 13 18 21 26
52 52 54 53 53 52 50 46 45 45 49 47 45 43 41 40 41 39 37 35 32 29 25 23 20 18 18 18 23 26 23 18 22 22 14 12 14 14 9 12 24 29 33 38
32 35 33 33 32 31 30 32 33 35 36 39 35 33 31 31 29 29 30 29 25 15 13 15 13 14 13 14 15 16 16 21 21 18 14 13 17 24 28 32 37 41 44 47
29 27 26 26 26 26 26 26 26 28 31 34 33 25 22 23 28 31 32 30 29 32 33 32 30 30 26 28 29 32 34 31 27 26 30 29 33 35 39 44 45 46 46 44
26 24 23 23 24 24 25 25 24 23 25 31 34 31 29 27 29 32 31 26 24 22 23 27 28 31 25 29 31 33 30 29 32 40 42 40 39 38 40 38 38 39 42 43
19 20 20 20 20 20 22 22 22 22 23 28 32 27 20 17 22 21 22 28 31 34 33 34 40 39 37 38 37 39 37 36 34 30 30 33 31 30 33 36 40 41 41 46
22 22 22 22 21 21 21 22 21 20 21 25 31 23 19 23 27 33 31 30 29 25 31 35 35 31 25 20 25 31 28 22 25 29 29 34 34 37 29 28 23 24 27 28
23 23 23 23 22 20 18 19 18 17 18 19 18 16 7 6 9 14 18 21 23 24 25 27 30 29 29 34 38 29 23 26 33 35 24 18 12 10 11 13 14 17 18 18
17 17 18 19 19 19 17 17 18 18 19 19 12 12 14 16 18 18 18 17 18 19 19 22 22 21 20 20 27 27 24 21 11 9 9 9 10 10 12 14 16 17 18 20
20 17 16 15 15 14 13 13 14 13 13 7 11 14 10 7 6 9 12 15 17 17 18 18 16 18 14 16 22 27 25 15 5 8 8 11 13 16 18 19 19 23 26 28
19 18 16 12 7 7 12 14 13 14 14 17 19 17 16 17 18 22 23 17 10 10 11 9 10 14 16 16 16 14 12 11 7 10 13 17 20 23 26 28 30 33 35 35
13 13 11 12 12 11 9 6 5 3 4 5 9 18 22 15 10 6 6 5 3 4 6 7 5 6 6 8 11 13 7 9 13 17 21 24 28 31 33 36 37 38 39 40
9 9 10 8 7 5 5 4 4 6 2 2 1 1 0 4 4 3 2 4 4 4 4 3 4 5 9 13 13 14 12 13 16 22 30 32 34 36 38 41 43 44 44 43
12 9 6 3 2 3 3 2 3 2 2 5 6 8 7 6 6 4 3 5 5 7 5 6 11 14 16 16 13 14 19 25 28 31 33 36 39 40 41 43 42 42 42 42
8 4 4 2 1 2 3 7 2 2 5 6 6 6 5 4 4 4 4 6 6 5 6 5 10 9 14 26 27 30 31 31 32 34 36 38 37 37 37 39 43 44 45 45
6 4 2 1 2 3 3 4 4 5 7 9 9 9 8 5 6 5 4 3 2 2 2 16 24 27 30 32 34 34 34 36 36 35 35 37 39 40 43 44 43 41 41 41
4 3 2 1 2 6 6 8 7 9 9 10 8 5 3 2 2 3 3 3 8 14 20 26 30 32 32 34 34 35 33 32 36 39 42 44 44 43 43 42 39 38 37 37
3 4 8 8 7 6 9 11 11 9 8 6 5 3 2 3 4 4 4 11 16 23 29 31 32 33 35 34 32 34 38 39 42 45 44 42 40 42 42 40 41 39 36 34
Wind_Direction
150 77 63 65 67 65 61 57 53 50 52 55 56 57 58 58 58 64 67 72 69 68 31 312 269 257 253 263 242 244 246 252 245 250 263 255 246 241 228 217 216 224 235 271
274 274 271 286 311 323 344 16 45 37 44 41 38 42 47 51 48 52 40 48 40 26 18 343 284 287 274 273 271 263 233 234 252 261 259 256 248 250 247 240 246 241 201 264
270 280 287 290 292 298 307 321 325 327 323 4 9 13 18 17 17 26 22 39 31 13 354 324 283 284 281 273 261 253 262 254 246 243 271 263 251 272 265 236 242 251 254 281
271 275 278 283 289 294 299 304 303 306 306 317 324 319 322 325 329 333 347 12 1 350 342 324 308 300 296 289 278 263 256 261 261 268 266 267 271 273 269 255 265 255 283 280
271 273 276 280 283 286 290 292 294 290 292 297 298 298 299 299 299 292 291 279 309 321 332 313 303 299 296 290 284 277 269 269 279 280 281 282 273 270 270 270 270 270 278 284
272 275 279 281 283 285 286 286 284 286 288 291 290 291 289 289 292 292 280 278 292 299 311 310 301 291 288 284 280 277 273 274 276 278 289 287 275 282 275 272 275 278 280 308
275 277 280 283 286 286 286 286 287 286 281 281 282 281 281 284 287 287 286 285 285 293 298 302 298 288 279 272 272 274 268 267 267 275 280 256 280 251 260 275 286 291 293 304
274 276 278 279 280 281 284 284 284 283 282 280 278 281 281 282 283 284 283 283 286 289 293 296 293 285 283 278 261 256 256 255 247 249 230 276 282 271 280 284 273 278 278 262
273 274 276 276 278 280 280 282 283 281 281 279 279 280 282 282 284 285 284 283 284 286 292 292 271 262 277 259 249 247 240 241 238 233 248 242 141 308 294 290 275 268 256 285
276 276 276 277 280 280 280 281 282 279 280 279 278 277 277 278 279 279 279 279 279 280 281 275 261 259 251 245 250 254 239 232 234 240 248 265 263 273 267 268 299 289 274 283
280 278 279 279 281 281 282 280 275 274 273 272 272 273 272 271 271 271 274 278 274 275 263 260 263 257 255 254 256 252 250 242 238 235 232 272 257 266 277 277 278 288 291 294
276 273 273 277 279 278 276 274 272 271 272 273 271 269 270 268 267 267 263 262 256 254 247 237 243 238 233 233 244 239 250 255 263 247 253 285 267 275 284 286 287 288 289 292
276 276 277 279 281 282 280 279 278 278 277 278 281 276 268 264 257 258 263 266 264 257 257 256 250 254 260 257 263 263 261 255 247 259 264 266 265 275 282 288 292 292 292 290
277 279 282 282 283 284 282 281 280 279 280 280 278 279 276 268 258 257 262 261 262 265 268 264 258 257 272 272 276 277 274 271 269 277 281 278 279 283 280 277 281 286 293 300
284 282 280 283 285 284 283 281 278 273 269 271 278 280 282 268 267 270 263 270 273 270 266 261 260 264 278 279 281 274 272 274 275 268 275 278 276 278 279 292 300 308 308 304
287 287 288 286 283 280 281 284 277 277 272 271 278 281 274 269 263 262 264 263 262 258 252 256 266 271 266 256 261 274 279 270 271 276 286 301 296 293 310 312 317 320 318 319
278 280 283 284 284 284 281 277 279 276 273 272 284 292 283 239 246 260 264 266 269 260 260 264 264 263 265 267 272 270 266 280 286 292 298 312 329 328 328 330 329 329 334 334
285 286 286 285 282 282 278 274 274 269 261 261 264 257 252 260 262 262 263 268 268 263 262 261 267 273 268 259 265 275 280 282 295 311 331 319 310 317 319 318 320 320 316 311
277 283 292 299 294 284 277 271 269 268 258 241 252 261 271 259 244 247 255 260 279 275 274 274 275 269 247 257 272 272 272 274 306 320 296 298 303 303 306 315 319 314 314 310
279 280 284 299 294 283 286 284 276 266 253 243 254 258 252 262 273 283 290 284 260 247 261 267 256 259 266 277 287 283 297 334 317 288 290 298 305 309 309 308 307 309 311 308
285 289 293 285 283 280 267 236 212 204 251 233 242 255 264 273 269 258 217 222 231 248 250 254 247 283 294 281 266 283 297 278 278 292 304 313 311 309 306 307 307 305 303 302
308 298 294 292 272 231 213 201 188 211 239 163 322 267 139 243 227 254 285 265 236 241 244 224 226 247 230 232 256 266 271 274 282 303 309 309 307 308 306 305 304 304 304 304
310 307 295 277 247 192 191 205 225 208 83 46 19 7 2 1 346 320 258 240 227 247 233 231 220 212 229 242 270 308 312 318 307 299 299 300 300 300 300 301 302 302 301 302
314 298 253 257 126 87 255 232 242 324 356 8 355 338 317 293 265 226 235 239 248 242 233 226 215 222 310 328 323 315 313 309 308 307 305 303 303 304 305 306 305 303 302 301
302 274 247 215 183 226 351 28 14 0 344 347 341 328 314 263 233 225 243 247 262 288 302 329 327 323 318 316 317 314 310 307 306 305 307 306 306 305 305 306 307 307 305 306
287 248 230 226 273 213 299 311 318 319 324 324 334 334 312 281 245 234 233 281 319 312 307 304 306 306 305 306 307 307 307 306 306 308 308 308 309 308 307 307 309 307 306 310
267 296 297 286 278 273 282 286 290 302 313 327 339 336 291 296 266 252 275 310 307 299 296 300 303 307 309 310 310 309 307 306 308 309 310 310 308 307 306 304 304 302 300 304